Фирма Номер Наименование Кол-во Цена T Дн. Дата заказа
Фирма Номер Наименование Кол-во Цена T Дн. Дата заказа
52405 JP GROUP 1114307900 патрубок радиатора VW Golf 1.8 1 1734 1 21.09.2019
52368 CORTECO 411352P Прокл.ГБЦ (1,75-mm) 4 2393 11 20.09.2019
52284 HANS PRIES 113194755 Сайлентблок рычага 1 3381 1 16.09.2019
52276 ROLLTEC RWK60058 Комплект подшипника ступицы ко 2 3308 14 15.09.2019
52231 ELWIS ROYAL 0256062 Прокладка впускного коллектора 6 568 1 12.09.2019
52221 ELWIS ROYAL 0256062 Прокладка впускного коллектора 4 568 1 11.09.2019
52217 MEYLE 1004120019S VW Golf IV/Bora/New Beetle ,AU 4 1455 1 11.09.2019
52216 CORTECO 026156P Прокладка крышки ГБЦ 1 1162 11 11.09.2019
52176 KRONER K103318 Шарнирный комплект, приводной 6 5503 14 09.09.2019
52140 ROLLTEC RWK60033 Ступица в сборе зад +ABS 5 1 7813 1 06.09.2019
52073 KRONER K151300 Подшипник ступ ком/кт задн. 20 1368 1 03.09.2019
51999 SACHS 3000950949 Комплект сцепления 240 mm (без 1 131081 11 30.08.2019
51948 JP GROUP 1163604010 VW Multivan V 1.9-3.2/TDI/V6 0 4 4500 1 27.08.2019
51928 TIMMEN ST134002F Пружина VW Golf 1.6-2.0 98-05, 2 4906 1 26.08.2019
51875 ATTEX AN11290 Шрус наруж. ком/кт ком/кт AUDI 2 5837 1 23.08.2019
51875 KAMOKA 6560 Шрусы комплект 2 5306 1 23.08.2019
51874 KRONER K151302 Подшипник ступ ком/кт перед. 10 2686 1 23.08.2019
51856 ROLLTEC RWK60004 Комплект подшипника ступицы ко 30 1349 14 22.08.2019
51824 KRONER K151309 Подшипник ступ ком/кт перед/ з 3 4079 1 20.08.2019
51797 OPTIBELT ZRK1468 Зубчатый ремень 141 з. Audi/Se 1 7949 1 19.08.2019
51673 KRONER K330116 Опора шаровая нижняя левая AUD 2 1925 1 12.08.2019
51673 KRONER K330117 Опора шаровая нижняя правая AU 2 1925 1 12.08.2019
51541 LPR 05P600 Тормозные колодки дисковые LPR 1 3437 1 04.08.2019
51500 AUTOSFEC BP010429 Тормозные дисковые колодки пе 6 2507 1 01.08.2019
51461 JP GROUP 1126400100 Регулирующий клапан охлаждающе 1 3201 1 30.07.2019
51374 HANS PRIES 103538586 VW Passat B3/Golf II 3 1235 1 24.07.2019
51373 HANS PRIES 108310586 VW Golf III/Vento 5 1084 1 24.07.2019
51362 NGK 48005 Катушка зажигания 4 8878 14 23.07.2019
51331 MAPCO 43858 Ролик натяжителя ремня ГРМ 1 9117 11 22.07.2019
51329 ATTEX AN34016 Шрус наруж. ком/кт AUDI A4 1,6 4 5259 1 22.07.2019
51328 NK 63471510 Амортизатор 2 7710 11 22.07.2019
51327 ROLLTEC RWK60024 Комплект подшипника ступицы ко 2 11374 14 22.07.2019
51326 HANS PRIES 108892755 AUDI A4 1,6-2,8 01/95-11/00, A 2 1634 1 22.07.2019
51233 KRONER K3501563H Аммортизатор гидравлический за 2 5137 1 15.07.2019
51117 AUTOSFEC BP000451 Тормозные дисковые колодки зад 5 2274 1 09.07.2019
51111 HANS PRIES 108195755 Фланец водяного охлаждения 2 798 11 09.07.2019
51106 KRONER K151302 Подшипник ступ ком/кт перед. 5 2669 1 09.07.2019
51101 AUTOSFEC BP011104 Тормозные дисковые колодки пе 1 3564 1 09.07.2019
51056 HANS PRIES 113299755 Деталь 1 2068 1 06.07.2019
51035 AUTOSFEC BP010571 Тормозные дисковые колодки зад 1 2317 1 05.07.2019
51032 JP GROUP 1151400100 AUDI 80 [B3] 1,4-2,0-16v 09/86 2 2742 1 05.07.2019
50979 KRONER K3501436G Аммортизатор газовый передний 1 6790 1 03.07.2019
50976 JP GROUP 1196203700 VW T4, 1/96-11/99 DK 1 5077 1 03.07.2019
50976 KAMOKA 9937878 Ремкомплект передней подвески 1 40483 1 03.07.2019
50951 KRONER K101019 Шрус наруж. ком/кт VW Transpor 2 5648 1 02.07.2019
50933 KRONER K330106 Опора шаровая, левая VW Passat 2 1460 1 01.07.2019
50933 KRONER K330107 Опора шаровая, правая VW Passa 2 1460 1 01.07.2019
50901 MEYLE 1008990083 ДАТЧИК ДАВЛЕНИЯ КОНДИЦИОНЕРА 2 2782 11 29.06.2019
50900 KRONER K353224 Опора передней стойки AUDI SKO 3 1466 1 28.06.2019
50889 JP GROUP 1194000900 Термовыключатель, вентилятор р 3 1567 21 28.06.2019
50818 HANS PRIES 111585755 AUDI Q7 3,0-4,2/TDI/FSI 03/06- 2 1119 1 24.06.2019
50807 AUTOSFEC BP000784 Тормозные дисковые колодки пер 2 3440 1 24.06.2019
50805 ATTEX AN11297 Шрус наруж. ком/кт ком/кт AUDI 2 4872 1 24.06.2019
50765 ATTEX AV34328 Шрус внутр. ком/кт AUDI 80 [B4 6 5231 1 21.06.2019
50760 ROLLTEC RWK60004 Подшипник ступ ком/кт зад 20 1330 1 21.06.2019
50718 ATTEX AN11292 Шрус наруж. ком/кт ком/кт AUDI 2 6433 1 19.06.2019
50711 AUTOSFEC BP000784 Тормозные дисковые колодки пер 2 3499 1 19.06.2019
50690 JP GROUP 1143701210 VW T4, 1.8-2.5 M/D DK 2 1587 1 17.06.2019
50649 JP GROUP 1161602800 AUDI A4/A6 all 1/95->,VW Passa 4 1021 1 14.06.2019
50598 JP GROUP 1132102100 AUDI/VW DK 5 776 1 12.06.2019
50571 ROLLTEC RWK60005 Подшипник ступ ком/кт перед 5 3346 1 11.06.2019
50571 ROLLTEC RWK60010 Подшипник ступ ком/кт перед из 5 3242 1 11.06.2019
50528 JP GROUP 1117600400 Маслопровод, компрессор 1 16751 21 08.06.2019
50516 HANS PRIES 109327755 Деталь 1 3574 1 07.06.2019
50454 ORIGINAL IMPERIUM 37345 Подвеска двигатель 1 13079 1 04.06.2019
50331 KRONER K353255 Опора амортизатора 4 1895 1 28.05.2019
50324 HANS PRIES 108672755 window lifter 3 3933 24 28.05.2019
50324 HANS PRIES 108673755 window lifter 2 3933 24 28.05.2019
50322 HANS PRIES 107083466 repair kit 10 1365 24 28.05.2019
50287 STARNER S100181 Подшипник + Рем комплект пер 2 3019 1 26.05.2019
50272 SASIC 2304026 Опора, стабилизатор 1 364 14 25.05.2019
50260 KRONER K152308 Паразитный / ведущий ролик, по 1 1313 14 24.05.2019
50259 SASIC 2304026 Опора, стабилизатор 2 361 14 24.05.2019
50258 KRONER K303141 Стойка стабилизатора, передняя 2 1504 1 24.05.2019
50239 JP GROUP 1188301000 Ручка стеклоподъемника [MECHAN 4 363 11 23.05.2019
50198 ATTEX AN27380 Шрус наруж. ком/кт Renault Meg 1 4584 1 22.05.2019
50189 HANS PRIES 109081755 lock cylinder 1 1870 24 21.05.2019
50172 FEBI BILSTEIN 37783 Hazard Light Switch 1 7489 14 21.05.2019
50166 JP GROUP 1150301300 AUDI 80/100/A6/V8/A8 Quattro 1 2 1486 1 21.05.2019
50160 JP GROUP 1111306700 VW GOLF/VEN/BOR/PA DK 1 1085 1 20.05.2019
50137 STARNER S201680 Шрус LARGUS 16 v наружний 1 3575 1 19.05.2019
49997 JP GROUP 1132102000 AUDI 80/100/A4/A6 ,VW Passat B 3 133 1 13.05.2019
49997 HANS PRIES 108572755 oil seal 2 189 24 13.05.2019
49975 ORIGINAL IMPERIUM 30749 Пыльник, приводной вал 4 960 14 12.05.2019
49972 ORIGINAL IMPERIUM 30749 Пыльник, приводной вал 6 960 14 12.05.2019
49967 ROLLTEC RWK60009 Комплект подшипника ступицы ко 10 1291 14 11.05.2019
49967 KRONER K151324 Подшипник ступ ком/кт задн. 2 1322 1 11.05.2019
49966 KRONER K151324 Подшипник ступ ком/кт задн. 3 1322 1 11.05.2019
49966 MEYLE 1001210095 Прокладка фланец охлаждающей ж 40 39 11 11.05.2019
49900 DELPHI LX0071 Комплектующие, колодки дисково 10 387 14 07.05.2019
49899 HANS PRIES 107387755 window lifter 1 5498 24 07.05.2019
49899 AUTOSFEC BP000784 Тормозные дисковые колодки пер 2 3436 14 07.05.2019
49890 BREMI 212F200 ignition cable 1 8983 14 07.05.2019
49854 KRONER K204004 Датчик температуры Dacia/Rena 1 696 1 05.05.2019
49852 KRONER K200004 Радиатор, охлаждение двигателя 1 8005 14 05.05.2019
49850 HANS PRIES 111023755 cap 2 818 24 05.05.2019
49849 KRONER K202038 Насос водяной RENAULT Logan 1. 1 4823 1 05.05.2019
49842 SASIC 1954001 Уплотняющее кольцо, коленчатый 1 1175 14 04.05.2019
49840 GSP 9423003 Wheel Bearing Kit 2 2827 14 04.05.2019
49839 KRONER K151247 Комплект подшипника ступицы ко 2 2901 14 04.05.2019
49839 KRONER K151510 Комплект подшипника ступицы ко 2 1991 14 04.05.2019
49797 AUTOSFEC BP000784 Тормозные дисковые колодки пер 2 3441 14 02.05.2019
49796 JP GROUP 1114900800 Сцепление, вентилятор радиатор 1 9802 21 02.05.2019
49795 HANS PRIES 102878755 door handle 2 1260 24 02.05.2019
49751 SWAG 30540013 Опора стойки амортизатора 6 2260 14 30.04.2019
49748 KRONER K353205 Опора передней стойки DACIA L 2 1670 1 30.04.2019
49746 KRONER K3512102G Аммортизатор газовый передний 2 6704 1 30.04.2019
49742 AUTOSFEC BP000784 Тормозные дисковые колодки пер 2 3483 1 30.04.2019
49725 MEYLE 1009598717 Датчик термовыключатель вентил 2 1949 11 29.04.2019
49720 KAMOKA 9957132 Наконечник поперечной рулевой 4 1508 14 29.04.2019
49716 FEBI BILSTEIN 02111 Radiator Cap 5 861 14 28.04.2019
49703 MEYLE 1009190026 датчик температуры о.ж. vw gol 1 912 7 27.04.2019
49642 JP GROUP 1115301100 Фланец под карбюратор [моно-вп 1 2199 11 25.04.2019
49639 FEBI BILSTEIN 02111 Radiator Cap 10 862 14 25.04.2019
49615 ORIGINAL IMPERIUM 30749 Пыльник, приводной вал 10 957 14 24.04.2019
49613 FENOX IC16028 Катушка зажигания 1 11199 11 24.04.2019
49599 SWAG 30929878 30929878 Группа контактная зам 1 1834 1 23.04.2019
49574 BLUE PRINT ADN12324 Топливный фильтр 1 982 14 22.04.2019
49558 HANS PRIES 111367755 rotat.sensor 1 3807 24 21.04.2019
49558 JP GROUP 1130201300 Диск сцепления [210 mm][CLUTEX 1 6150 11 21.04.2019
49557 HANS PRIES 102777755 boot 1 1038 24 21.04.2019
49557 KAMOKA 9963563 Тяга / стойка, стабилизатор 4 1296 14 21.04.2019
49542 JP GROUP 1187100600 Ручка двери перед лев./прав.[M 1 2692 11 20.04.2019
49508 ROLLTEC RWK60058 Подшипник однорядный шариковый 2 3244 1 19.04.2019
49425 REMSA 654700 Торм.диск зад.[232x9] 5 отв.[m 2 2884 11 16.04.2019
49419 HANS PRIES 104084585 bowden cable 2 1548 24 16.04.2019
49336 JP GROUP 1115301100 Фланец под карбюратор [моно-вп 2 2208 11 12.04.2019
49308 MEYLE 1009190010 Датчик термо 120° 3-контактный 3 1892 11 11.04.2019
49306 ATTEX AN11292 Шарнирный комплект, приводной 1 6153 14 11.04.2019
49306 ATTEX AN11292 Шрус наруж. ком/кт ком/кт AUDI 1 6153 1 11.04.2019
49305 ATTEX AN11274 Шарнирный комплект, приводной 6 5601 14 11.04.2019
49260 JP GROUP 1187100600 Ручка двери перед лев./прав.[M 3 2700 11 09.04.2019
49242 FEBI BILSTEIN 02269 Radiator Cap 20 534 14 08.04.2019
49129 JP GROUP 1143501710 Шарнирный комплект, приводной 1 7568 21 02.04.2019
49107 BGA CH6517H Gasket, cylinder head 1 2792 14 01.04.2019
49104 HANS PRIES 108516755 VW Golf III 10/91-08/97 Ручка 1 1794 1 01.04.2019
49064 JP GROUP 1187100670 ручка дверная пер. л. VW Polo/ 2 1291 1 30.03.2019